Temp
74 79 81 83 84 84 84 83 83 83 83 83 83 83 83 83 83 83 83 83 83 84 84 84 84 84 84 84 84 84 83 83 83 83 83 82 82 82 83 82 82 89 82
78 81 82 83 83 84 83 83 83 83 83 83 83 83 83 83 83 84 83 84 83 84 84 84 84 84 83 83 84 84 83 83 83 83 83 83 83 82 82 82 82 86 82
84 86 86 82 83 83 83 83 83 83 83 83 83 83 83 83 83 83 84 84 84 84 84 84 84 84 83 83 83 83 83 83 83 83 82 91 89 83 82 82 82 82 81
87 88 88 82 83 83 83 83 83 83 83 83 83 83 83 84 83 84 84 84 83 84 84 84 84 83 83 83 83 83 83 83 83 83 90 90 91 82 82 82 82 81 81
86 88 87 82 83 83 83 83 83 83 83 83 83 83 83 83 83 84 84 84 84 84 84 84 83 83 83 83 83 83 83 83 84 86 89 89 90 87 82 82 82 82 81
85 89 84 83 83 83 83 83 83 83 83 83 83 83 83 83 83 83 84 84 84 84 84 83 83 83 83 83 83 83 83 83 84 90 89 90 88 84 82 83 83 82 82
86 88 88 83 83 83 83 83 83 82 83 83 83 83 83 83 83 83 83 83 83 83 83 83 83 83 83 83 83 83 83 84 90 92 90 89 90 81 82 83 82 82 82
86 88 88 83 83 83 83 82 82 83 83 83 83 83 83 83 83 83 83 83 83 82 82 82 83 83 83 83 83 83 83 83 91 92 91 91 84 80 82 83 82 82 82
87 86 87 88 85 83 83 82 83 83 83 83 83 83 83 83 83 83 83 83 83 83 83 83 83 83 83 83 83 83 83 84 91 93 91 92 79 80 82 83 82 82 82
84 86 85 85 87 87 87 83 83 83 83 83 83 83 83 83 83 83 82 82 83 84 84 84 84 84 84 84 84 84 84 84 94 93 92 92 80 81 83 83 83 82 81
83 84 84 85 84 84 86 86 84 83 83 84 84 84 85 90 89 87 83 83 84 84 84 85 84 84 83 84 83 83 83 94 94 93 92 82 79 81 83 83 82 81 82
81 83 85 85 85 85 87 86 86 87 89 87 87 86 89 87 87 88 86 82 83 83 84 83 83 83 86 93 94 86 93 93 93 93 93 81 80 80 82 82 82 82 82
82 83 84 84 84 85 86 87 87 88 88 87 85 85 86 87 87 90 89 91 89 87 92 91 92 93 91 92 92 92 92 92 95 94 91 80 80 81 82 82 81 82 82
81 83 84 84 82 83 86 86 86 87 87 87 87 84 85 88 87 86 89 89 87 90 87 89 92 89 90 90 90 90 92 93 94 94 92 81 80 80 82 82 82 82 82
81 83 83 83 81 82 81 85 85 85 87 88 87 86 88 88 86 87 87 89 89 90 91 89 89 88 88 89 89 89 91 91 92 93 93 82 81 80 81 82 82 82 82
82 83 84 83 82 82 82 81 83 85 87 87 89 89 86 88 86 88 88 89 90 90 91 89 87 87 88 89 89 89 88 90 90 89 93 93 81 80 81 82 82 83 83
83 84 84 84 84 82 82 83 84 86 88 87 88 86 86 86 86 85 88 88 90 88 87 88 88 88 89 89 87 89 88 87 89 87 90 91 92 81 80 81 81 82 82
84 82 84 86 84 83 82 83 85 87 87 88 89 88 86 86 85 85 88 89 89 88 89 89 87 87 86 86 86 87 86 87 86 87 89 89 89 91 84 80 79 80 81
83 82 82 84 84 83 83 84 85 85 86 88 88 89 86 87 87 86 89 89 87 89 89 89 88 85 84 82 84 86 86 86 87 88 85 86 86 88 89 81 79 78 80
84 84 83 83 83 83 84 83 86 86 87 87 88 89 86 88 87 87 89 87 88 89 89 87 84 82 77 76 85 84 83 86 87 86 87 89 86 86 87 83 85 86 77
85 83 82 82 82 82 83 83 84 85 86 87 88 87 87 88 87 86 89 88 87 86 84 81 81 76 71 73 81 81 85 85 84 87 88 87 84 85 84 83 84 82 84
84 82 82 82 82 82 84 84 86 86 87 88 89 87 87 87 87 86 86 87 86 86 83 80 75 70 70 69 66 71 72 78 84 84 82 81 79 84 83 82 80 79 81
84 82 82 82 82 82 83 84 83 83 83 84 85 86 87 86 86 86 86 86 86 84 84 75 72 72 66 65 68 66 67 66 71 78 77 77 75 79 82 82 80 80 79
85 86 84 83 82 83 82 83 81 83 83 86 86 88 87 86 86 86 85 86 85 87 81 75 75 72 71 67 69 69 71 71 68 66 72 73 75 77 78 81 82 80 79
87 87 86 83 82 83 82 82 83 81 86 87 87 83 83 84 85 87 86 86 85 87 80 76 74 71 71 69 66 68 70 71 70 68 67 68 71 79 81 81 81 80 80
88 88 87 83 80 82 81 81 81 81 82 84 83 84 86 88 88 85 86 85 86 86 79 78 77 74 72 69 70 68 70 70 73 70 68 69 70 77 80 81 80 80 80
MSLP
1015.96 1015.71 1015.62 1015.61 1015.60 1015.56 1015.56 1015.55 1015.63 1015.94 1016.08 1016.20 1016.45 1016.51 1016.60 1016.77 1016.88 1016.97 1017.03 1017.15 1017.28 1017.29 1017.40 1017.45 1017.45 1017.47 1017.54 1017.63 1017.65 1017.74 1017.80 1017.85 1017.86 1017.90 1017.90 1017.93 1017.93 1017.94 1017.98 1018.03 1018.09 1017.57 1018.19
1015.55 1015.66 1015.61 1015.70 1015.80 1015.79 1015.88 1015.87 1016.05 1016.27 1016.38 1016.43 1016.64 1016.73 1016.88 1017.04 1017.15 1017.17 1017.26 1017.35 1017.55 1017.58 1017.66 1017.69 1017.75 1017.81 1017.87 1017.89 1017.94 1018.01 1018.01 1018.09 1018.06 1018.01 1018.00 1018.00 1018.07 1018.14 1018.12 1018.21 1018.26 1018.01 1018.30
1015.43 1015.52 1015.65 1015.88 1016.06 1016.08 1016.17 1016.14 1016.33 1016.53 1016.63 1016.76 1016.83 1016.95 1017.10 1017.23 1017.32 1017.41 1017.57 1017.72 1017.79 1017.84 1017.85 1017.88 1017.96 1017.99 1018.04 1018.12 1018.19 1018.17 1018.13 1018.21 1018.20 1018.21 1018.23 1017.73 1017.64 1018.04 1018.11 1018.13 1018.28 1018.36 1018.40
1015.10 1015.31 1015.59 1016.07 1016.22 1016.37 1016.46 1016.44 1016.56 1016.70 1016.90 1017.01 1017.15 1017.27 1017.39 1017.52 1017.61 1017.75 1017.91 1017.98 1018.02 1017.99 1017.98 1018.01 1018.10 1018.20 1018.25 1018.29 1018.26 1018.20 1018.19 1018.20 1018.23 1018.23 1017.85 1017.77 1017.64 1018.06 1018.05 1018.24 1018.35 1018.48 1018.55
1015.29 1015.46 1015.87 1016.21 1016.32 1016.43 1016.58 1016.60 1016.76 1016.96 1017.11 1017.31 1017.48 1017.63 1017.74 1017.81 1017.87 1017.96 1018.07 1018.12 1018.15 1018.14 1018.12 1018.18 1018.28 1018.30 1018.33 1018.29 1018.24 1018.20 1018.15 1018.15 1018.11 1017.91 1017.67 1017.64 1017.66 1017.82 1018.11 1018.22 1018.39 1018.57 1018.63
1015.53 1015.57 1016.17 1016.19 1016.43 1016.56 1016.72 1016.85 1017.00 1017.21 1017.42 1017.66 1017.68 1017.82 1017.98 1018.05 1018.16 1018.23 1018.36 1018.44 1018.41 1018.40 1018.43 1018.44 1018.50 1018.50 1018.41 1018.39 1018.31 1018.25 1018.12 1018.03 1017.92 1017.45 1017.47 1017.44 1017.57 1017.72 1018.00 1018.15 1018.33 1018.50 1018.64
1015.72 1015.81 1016.08 1016.57 1016.69 1016.80 1016.91 1017.04 1017.27 1017.52 1017.74 1017.86 1018.01 1018.10 1018.18 1018.27 1018.38 1018.48 1018.55 1018.62 1018.63 1018.67 1018.71 1018.65 1018.59 1018.59 1018.57 1018.48 1018.33 1018.25 1018.16 1017.98 1017.61 1017.21 1017.29 1017.37 1017.29 1017.81 1018.01 1018.12 1018.22 1018.34 1018.49
1015.78 1015.81 1016.21 1016.75 1016.92 1016.86 1017.06 1017.28 1017.55 1017.73 1017.90 1018.05 1018.16 1018.32 1018.37 1018.47 1018.57 1018.61 1018.65 1018.65 1018.64 1018.75 1018.80 1018.75 1018.69 1018.64 1018.61 1018.57 1018.47 1018.37 1018.21 1017.98 1017.48 1017.19 1017.13 1017.09 1017.25 1017.71 1017.81 1017.91 1018.02 1018.15 1018.34
1015.87 1016.15 1016.37 1016.40 1016.93 1017.11 1017.35 1017.57 1017.73 1017.89 1018.02 1018.11 1018.27 1018.39 1018.52 1018.50 1018.47 1018.52 1018.58 1018.62 1018.65 1018.67 1018.72 1018.75 1018.74 1018.65 1018.60 1018.57 1018.48 1018.35 1018.17 1018.01 1017.59 1017.01 1017.15 1016.93 1017.42 1017.50 1017.60 1017.71 1017.86 1017.89 1018.04
1016.09 1016.25 1016.53 1016.73 1016.83 1016.90 1017.29 1017.73 1017.87 1018.01 1018.09 1018.22 1018.35 1018.45 1018.40 1018.46 1018.51 1018.62 1018.70 1018.65 1018.61 1018.64 1018.65 1018.67 1018.63 1018.51 1018.53 1018.41 1018.26 1018.17 1017.97 1017.66 1016.99 1016.91 1016.92 1016.90 1017.46 1017.57 1017.68 1017.76 1017.88 1017.84 1018.05
1016.38 1016.46 1016.62 1016.83 1017.07 1017.24 1017.42 1017.71 1017.94 1018.07 1018.21 1018.29 1018.34 1018.43 1018.37 1018.17 1018.32 1018.42 1018.60 1018.66 1018.65 1018.64 1018.55 1018.51 1018.50 1018.43 1018.34 1018.19 1018.13 1018.04 1017.90 1017.14 1016.99 1016.88 1016.89 1017.17 1017.43 1017.45 1017.56 1017.58 1017.67 1017.73 1017.87
1016.14 1016.41 1016.58 1016.81 1017.05 1017.28 1017.33 1017.62 1017.78 1017.88 1017.91 1018.16 1018.33 1018.42 1018.34 1018.43 1018.51 1018.52 1018.49 1018.70 1018.71 1018.69 1018.59 1018.51 1018.45 1018.35 1018.08 1017.67 1017.50 1017.71 1017.31 1017.08 1016.97 1016.88 1016.77 1017.19 1017.34 1017.40 1017.41 1017.50 1017.55 1017.55 1017.60
1015.92 1016.32 1016.55 1016.82 1017.15 1017.18 1017.21 1017.48 1017.73 1017.86 1018.09 1018.27 1018.45 1018.55 1018.48 1018.40 1018.42 1018.35 1018.36 1018.26 1018.39 1018.45 1018.17 1018.13 1017.97 1017.86 1017.91 1017.74 1017.50 1017.41 1017.34 1017.11 1016.75 1016.63 1016.55 1017.06 1017.09 1017.17 1017.29 1017.30 1017.32 1017.30 1017.37
1015.83 1016.13 1016.51 1016.81 1017.13 1017.31 1017.37 1017.50 1017.67 1017.81 1018.05 1018.20 1018.31 1018.56 1018.47 1018.25 1018.37 1018.38 1018.30 1018.39 1018.49 1018.31 1018.35 1018.25 1018.09 1018.18 1017.99 1017.89 1017.74 1017.56 1017.26 1017.00 1016.69 1016.56 1016.50 1016.96 1016.83 1016.85 1017.05 1017.17 1017.16 1017.11 1017.19
1015.77 1016.03 1016.43 1016.71 1017.08 1017.36 1017.59 1017.56 1017.78 1017.92 1017.97 1018.05 1018.33 1018.47 1018.37 1018.28 1018.35 1018.47 1018.53 1018.43 1018.37 1018.30 1018.24 1018.25 1018.31 1018.35 1018.20 1018.08 1017.99 1017.79 1017.38 1017.13 1016.89 1016.64 1016.51 1016.79 1016.82 1016.79 1016.90 1016.99 1016.92 1016.95 1016.95
1015.54 1015.77 1016.22 1016.60 1016.94 1017.25 1017.40 1017.69 1017.77 1017.91 1017.95 1018.08 1018.13 1018.25 1018.39 1018.29 1018.38 1018.40 1018.43 1018.37 1018.26 1018.35 1018.34 1018.41 1018.47 1018.32 1018.24 1018.13 1017.93 1017.83 1017.53 1017.11 1016.94 1016.85 1016.48 1016.35 1016.74 1016.85 1016.87 1016.72 1016.58 1016.63 1016.53
1015.29 1015.55 1015.92 1016.31 1016.66 1017.10 1017.30 1017.59 1017.72 1017.77 1017.76 1017.87 1017.92 1018.20 1018.28 1018.37 1018.39 1018.59 1018.42 1018.34 1018.34 1018.49 1018.56 1018.40 1018.37 1018.25 1018.11 1018.06 1018.03 1017.72 1017.57 1017.36 1016.95 1016.85 1016.63 1016.52 1016.39 1016.79 1016.75 1016.56 1016.29 1016.19 1016.23
1015.03 1015.36 1015.77 1016.01 1016.45 1016.84 1017.07 1017.32 1017.38 1017.49 1017.63 1017.55 1017.57 1017.79 1018.02 1018.21 1018.40 1018.48 1018.32 1018.25 1018.47 1018.51 1018.39 1018.25 1018.33 1018.24 1018.43 1018.48 1018.26 1018.05 1017.80 1017.47 1017.25 1016.99 1016.70 1016.67 1016.71 1016.60 1016.95 1017.07 1016.86 1016.57 1016.34
1014.90 1015.26 1015.56 1015.88 1016.21 1016.58 1016.83 1016.97 1017.16 1017.30 1017.40 1017.33 1017.38 1017.40 1017.72 1017.97 1018.18 1018.36 1018.19 1018.23 1018.54 1018.44 1018.28 1018.19 1018.37 1018.70 1018.97 1019.05 1018.57 1018.21 1017.92 1017.65 1017.39 1017.28 1017.28 1017.07 1017.01 1016.88 1016.73 1016.93 1017.04 1016.91 1016.81
1014.33 1014.91 1015.29 1015.68 1016.03 1016.46 1016.66 1016.91 1016.95 1017.14 1017.11 1017.19 1017.15 1017.11 1017.45 1017.70 1017.94 1018.13 1018.03 1018.19 1018.35 1018.34 1018.38 1018.49 1018.84 1019.46 1020.46 1020.29 1018.90 1018.31 1018.01 1017.76 1017.45 1017.38 1017.25 1017.07 1017.13 1017.07 1016.98 1017.10 1016.76 1016.55 1016.88
1013.73 1014.37 1014.87 1015.27 1015.61 1016.09 1016.41 1016.58 1016.69 1016.65 1016.79 1016.86 1016.83 1016.95 1017.13 1017.36 1017.72 1017.96 1017.83 1017.86 1018.12 1018.34 1018.73 1019.06 1019.35 1020.06 1020.44 1020.18 1019.15 1018.15 1017.44 1017.43 1017.40 1017.51 1017.35 1017.25 1017.17 1017.06 1017.13 1017.25 1017.14 1017.20 1016.81
1013.01 1013.55 1014.18 1014.61 1015.11 1015.59 1015.89 1016.13 1016.25 1016.33 1016.39 1016.36 1016.39 1016.62 1016.83 1017.03 1017.33 1017.57 1017.64 1017.60 1017.81 1018.17 1018.63 1019.12 1019.69 1020.62 1020.56 1019.92 1019.86 1019.14 1017.88 1017.30 1017.18 1017.40 1017.57 1017.72 1017.62 1017.25 1017.19 1017.20 1017.26 1017.17 1017.00
1012.23 1012.80 1013.39 1013.92 1014.39 1014.94 1015.35 1015.85 1016.18 1016.40 1016.36 1016.27 1016.27 1016.33 1016.25 1016.63 1016.89 1017.21 1017.34 1017.38 1017.58 1017.97 1018.19 1019.48 1019.93 1020.64 1020.55 1019.25 1020.15 1020.39 1019.66 1018.70 1018.15 1017.46 1017.34 1017.65 1017.65 1017.47 1017.16 1017.00 1017.11 1016.99 1016.95
1011.26 1011.88 1012.45 1013.09 1013.71 1014.25 1014.77 1015.17 1015.38 1015.35 1015.30 1015.22 1015.50 1015.59 1015.71 1016.04 1016.28 1016.63 1016.88 1017.01 1017.32 1017.21 1018.15 1019.22 1019.27 1019.77 1019.84 1019.64 1019.95 1019.15 1019.11 1019.16 1018.86 1017.86 1017.43 1017.43 1017.42 1017.29 1017.20 1016.89 1016.68 1016.72 1016.75
1010.32 1010.90 1011.47 1012.24 1012.91 1013.43 1014.01 1014.38 1014.70 1014.85 1014.61 1014.80 1015.10 1015.33 1015.44 1015.57 1015.79 1015.98 1016.27 1016.55 1016.81 1016.93 1017.77 1018.33 1018.67 1018.85 1018.82 1017.25 1017.85 1018.33 1018.46 1018.44 1018.52 1018.66 1017.58 1017.50 1017.46 1017.03 1016.84 1016.61 1016.57 1016.50 1016.43
1009.34 1009.94 1010.59 1011.37 1011.93 1012.61 1013.17 1013.63 1013.89 1013.95 1014.01 1014.23 1014.46 1014.54 1014.64 1014.91 1015.20 1015.49 1015.75 1016.00 1016.23 1016.37 1017.05 1017.53 1017.82 1018.06 1017.57 1018.36 1018.00 1017.96 1017.84 1017.74 1017.50 1017.75 1017.83 1017.57 1017.07 1016.48 1016.60 1016.34 1016.27 1016.21 1016.07
Wind_Speed
2 3 11 13 15 15 16 16 17 16 16 15 14 14 13 12 10 10 10 10 10 10 10 10 12 11 12 12 10 11 11 9 8 8 7 7 6 6 6 6 5 6 6
7 4 12 12 13 15 15 16 16 15 15 15 14 13 12 11 11 11 11 10 12 12 10 10 12 12 11 11 10 9 9 8 7 5 6 6 4 4 5 5 1 7 7
11 10 12 11 13 13 14 14 14 14 15 13 13 13 12 11 10 11 10 11 10 10 9 11 11 10 10 9 9 7 7 6 6 5 4 2 3 0 5 6 3 3 4
11 11 12 12 12 13 12 14 12 14 14 12 11 12 11 10 10 11 10 9 9 10 10 10 10 9 8 7 5 5 5 4 3 3 1 1 2 2 1 3 3 1 1
11 11 12 13 13 13 13 14 12 13 13 12 11 11 10 10 10 10 10 9 9 9 9 8 8 7 6 4 3 3 4 3 3 4 2 2 3 4 2 2 5 5 4
11 11 12 13 12 11 12 13 13 13 12 11 9 13 11 9 8 9 9 9 8 8 6 6 6 5 4 4 4 4 4 5 7 5 5 3 6 2 6 5 5 4 4
11 10 11 10 11 11 12 14 12 11 11 11 10 10 9 9 8 8 7 7 6 6 5 4 3 2 2 4 6 6 7 8 8 6 5 6 7 4 8 7 6 6 6
11 10 10 10 10 11 10 11 10 10 11 11 10 10 9 8 7 6 5 4 3 2 1 1 2 3 4 5 7 8 8 9 8 7 7 6 5 5 10 9 9 8 7
10 9 8 9 10 10 9 9 9 10 10 8 9 8 7 7 6 4 3 1 0 2 3 4 4 5 6 7 8 10 10 11 10 5 7 5 4 8 11 10 10 10 9
8 9 8 7 8 7 8 8 8 8 8 8 8 7 6 5 4 3 1 1 4 4 3 4 4 4 4 5 6 7 8 9 8 6 4 4 3 5 9 9 10 10 9
8 8 8 8 7 6 7 8 8 7 7 7 7 6 5 3 3 1 2 3 5 7 5 5 5 6 6 5 7 8 9 5 6 5 4 2 6 7 10 9 9 9 9
11 9 8 8 8 7 6 7 6 5 4 4 4 3 1 1 1 3 3 4 3 5 6 6 7 7 6 5 4 5 4 6 5 5 5 5 9 9 11 10 8 8 8
12 9 10 9 8 8 6 5 4 3 3 3 3 2 1 2 2 2 2 2 3 4 4 4 4 4 7 6 5 5 6 5 4 4 5 5 11 10 10 11 11 9 9
13 12 11 9 8 7 5 5 5 4 3 3 3 3 1 2 1 3 3 4 3 3 4 3 3 5 6 7 7 8 6 5 4 4 4 5 10 10 10 10 11 12 9
13 12 11 10 9 7 6 5 4 4 4 3 3 2 2 2 2 3 3 4 4 3 2 3 3 4 5 6 6 7 8 8 7 4 4 3 7 10 10 11 12 11 11
13 13 12 11 10 8 7 6 5 4 4 3 2 2 3 3 2 3 3 4 3 3 3 3 4 4 5 5 6 8 9 8 7 6 5 4 5 5 8 11 10 11 11
13 13 13 12 11 10 9 7 5 5 5 4 4 5 5 4 3 4 3 4 3 4 4 3 2 3 4 5 5 7 8 8 6 5 4 4 2 6 10 10 9 6 6
13 13 13 11 12 11 9 7 6 5 5 5 5 5 6 5 4 4 3 4 4 3 2 2 4 4 6 6 7 7 5 5 6 5 5 5 5 5 8 13 12 11 10
13 12 12 12 12 12 10 8 7 6 5 4 4 5 5 6 6 5 4 3 3 2 2 2 3 4 5 6 7 6 4 4 5 5 6 6 7 6 5 8 10 13 13
14 13 12 11 11 11 8 7 6 6 6 5 4 5 5 4 4 3 4 4 3 2 3 3 3 6 9 9 9 7 5 1 4 4 3 3 5 6 6 6 5 5 12
15 14 14 13 12 10 8 8 7 7 7 7 6 8 6 5 5 4 4 4 3 3 2 3 3 11 7 10 7 9 3 1 4 2 1 2 4 5 5 5 5 5 4
17 16 15 15 13 12 9 8 7 6 7 8 7 8 8 8 7 5 5 4 3 3 2 2 11 6 4 6 3 8 4 4 2 4 1 0 3 4 4 4 4 5 4
18 17 16 16 15 14 13 8 6 5 5 6 7 8 10 10 9 8 7 5 3 4 2 13 13 11 3 5 4 3 5 3 9 4 3 3 1 3 2 2 3 5 4
19 17 17 16 15 14 14 11 12 11 11 11 9 9 9 10 10 9 8 7 5 4 6 12 11 8 4 2 1 8 10 5 5 5 2 3 3 5 3 4 3 4 4
20 18 17 16 15 15 14 15 12 13 11 10 9 10 9 8 9 9 8 7 7 6 11 14 14 11 6 4 5 5 6 5 9 9 8 3 3 5 4 5 4 4 4
19 19 18 17 16 16 16 17 16 15 13 11 11 10 9 8 7 8 9 9 8 6 13 14 14 13 9 3 4 6 7 6 4 6 6 6 6 4 4 4 6 5 5
Wind_Direction
180 157 121 107 106 102 96 95 97 102 108 112 115 116 116 120 122 122 120 107 107 98 92 94 93 87 88 85 83 96 94 92 100 104 101 92 94 104 97 94 139 120 113
138 151 117 116 110 107 106 103 102 105 107 110 114 110 115 117 119 116 118 115 105 92 95 89 91 89 90 94 92 92 97 106 100 88 99 114 120 155 130 113 132 89 120
137 141 134 125 118 111 110 107 107 110 113 115 122 123 118 116 114 119 113 104 101 102 104 97 91 92 92 91 91 91 95 94 100 104 105 71 52 22 165 143 145 139 129
138 134 137 130 124 123 119 111 115 117 113 113 108 109 113 124 116 114 102 103 102 104 94 99 95 89 84 80 82 85 81 79 95 129 171 84 41 71 60 147 147 153 166
135 135 129 130 131 135 129 117 123 119 122 117 127 123 117 106 124 117 110 108 104 104 105 96 88 88 86 86 62 33 29 3 333 259 270 250 245 144 220 183 181 197 212
139 136 125 121 127 121 118 125 118 124 113 123 120 134 120 118 107 98 113 112 109 105 94 81 78 69 41 13 354 346 343 323 302 288 286 251 256 167 209 209 212 225 229
142 140 130 128 136 128 125 125 120 121 123 126 121 114 112 112 112 110 110 101 92 90 87 76 45 10 321 320 310 311 310 307 300 308 315 300 282 229 222 218 217 225 219
145 143 142 142 139 132 130 120 126 133 128 118 116 113 114 110 102 103 101 103 115 103 82 293 282 295 303 299 300 299 301 299 294 310 314 312 328 247 217 220 221 226 225
149 151 153 146 141 134 134 134 138 138 124 113 117 121 114 117 121 118 104 80 142 204 261 276 288 296 305 303 307 308 305 300 295 299 306 331 25 233 217 223 225 225 226
161 157 157 153 148 150 137 141 145 136 128 120 123 125 138 136 121 119 139 17 333 347 318 300 311 355 347 316 304 307 310 295 288 303 283 329 328 238 229 234 236 246 247
173 166 162 158 155 136 145 141 152 149 143 141 145 139 155 128 112 75 20 310 318 329 328 348 343 328 333 290 312 317 309 300 318 304 295 308 288 252 239 238 244 267 258
176 179 170 171 160 157 158 153 154 155 152 148 144 149 158 356 346 312 301 312 357 341 327 330 330 328 308 328 318 277 298 299 292 302 298 284 277 273 254 245 247 271 259
177 186 179 174 171 172 163 161 159 165 166 167 173 175 236 287 297 300 313 334 341 355 333 330 334 352 348 339 336 334 327 301 295 286 299 279 273 268 254 257 249 254 243
184 188 180 181 178 185 175 173 169 181 179 189 167 171 248 277 305 326 347 353 345 345 338 335 347 350 345 346 342 340 342 332 318 306 310 270 274 269 246 255 258 256 257
189 189 190 186 185 186 190 179 190 201 200 198 201 190 255 293 313 336 338 338 338 341 341 332 348 359 3 353 345 331 327 330 328 310 307 253 285 266 268 266 266 270 275
193 193 190 194 189 190 195 196 199 207 218 233 235 232 241 280 308 325 345 341 355 2 7 346 344 356 6 358 355 344 332 326 328 320 330 332 338 327 301 286 288 281 274
198 193 194 193 191 194 201 202 207 214 221 242 241 235 242 254 272 307 323 319 340 351 341 334 8 30 8 358 354 348 341 351 352 8 354 347 351 77 42 35 32 10 308
203 196 196 192 191 197 201 203 211 213 232 250 256 238 230 236 252 274 295 310 351 324 328 13 31 13 4 357 345 349 3 23 13 27 40 32 38 38 77 43 42 40 36
203 205 199 194 196 200 204 209 218 224 240 249 242 227 220 230 235 247 272 299 312 329 356 12 42 18 357 350 327 340 352 20 27 35 54 68 55 42 33 52 32 32 19
204 208 207 199 203 203 206 212 225 237 240 240 237 232 212 217 221 237 265 272 274 309 350 357 11 46 22 350 330 345 321 283 10 24 30 49 58 41 33 22 4 28 29
206 206 208 202 204 196 201 211 225 229 227 234 236 242 235 220 214 221 258 282 237 264 21 24 19 53 33 1 342 332 320 338 286 334 350 6 48 43 40 27 15 359 1
204 205 205 208 202 204 205 212 223 219 231 241 246 249 250 251 241 237 253 274 242 235 219 71 62 75 31 45 252 298 319 314 64 306 210 354 12 13 26 38 18 15 339
210 205 205 207 207 207 210 209 209 220 238 237 237 245 240 238 240 234 238 248 232 228 265 101 103 105 128 271 100 112 330 337 331 302 228 223 347 313 320 357 338 358 334
211 207 205 205 207 209 202 211 215 225 234 236 242 248 247 236 236 230 230 230 222 228 130 132 142 141 160 252 233 183 204 226 273 302 243 222 278 288 291 336 321 318 299
211 210 209 206 207 209 203 212 215 229 237 243 243 248 242 239 232 231 224 218 213 218 144 159 157 166 204 207 174 191 226 226 226 239 279 299 273 267 290 314 313 300 309
212 211 210 204 206 203 203 208 213 224 230 236 234 243 247 243 231 222 220 214 212 196 168 176 179 181 217 261 202 227 208 233 234 220 248 280 304 287 266 287 301 313 317